Temp
38 39 38 37 37 37 36 36 36 35 35 35 35 35 35 35 35 34 34 35 35 35 35 35 35 35 34 35 34 35 35 34 35 36 35 35 35 34 34 35 35 36
36 36 35 35 35 35 34 34 34 35 34 34 34 34 35 34 34 34 33 33 34 33 34 34 34 34 33 34 34 34 34 34 33 35 33 33 34 34 34 34 34 35
34 33 33 33 33 33 33 34 34 34 34 34 33 34 33 33 33 33 33 33 32 33 32 33 33 33 32 33 32 33 33 32 32 33 33 33 33 33 34 34 34 33
33 33 33 33 33 33 34 33 33 33 33 33 32 32 32 32 32 32 32 32 32 32 32 32 32 32 32 32 32 32 32 32 32 32 32 33 33 33 33 34 33 33
34 34 34 33 33 33 33 32 31 31 31 31 31 32 31 31 31 31 31 30 31 31 31 31 31 31 31 31 31 30 31 31 31 31 31 31 32 32 32 33 32 32
33 33 33 32 32 32 31 31 30 30 30 30 30 30 30 30 30 29 29 29 29 29 29 29 29 29 29 29 29 29 29 29 30 30 29 29 30 31 31 31 31 31
31 31 31 31 30 31 30 30 30 30 29 29 29 28 28 28 28 28 28 28 27 27 27 27 27 27 27 27 27 27 28 28 28 28 28 28 29 29 30 30 30 30
30 30 30 30 29 29 29 28 28 28 28 28 27 27 27 26 26 26 26 26 26 26 25 26 25 25 25 25 25 25 25 26 26 26 26 26 27 27 28 28 28 28
29 29 29 28 28 28 27 27 27 26 27 25 25 25 26 26 25 25 24 25 24 24 24 24 24 23 24 24 24 24 24 24 25 25 25 25 25 25 26 27 26 27
28 28 27 27 26 26 25 25 25 25 25 24 24 24 24 24 24 23 23 23 22 22 22 22 22 22 22 23 22 23 23 23 24 24 24 24 24 24 25 25 25 25
27 27 26 25 25 25 24 24 23 23 23 22 22 22 22 22 22 22 21 21 20 20 20 20 20 20 20 21 22 22 22 22 22 23 23 23 24 24 24 24 24 24
26 25 25 24 24 23 22 22 22 21 21 21 21 20 20 20 19 19 19 18 19 19 18 18 19 19 19 19 20 21 21 21 22 22 22 22 22 23 23 23 22 22
24 24 24 23 22 22 21 21 20 19 19 18 19 18 17 17 17 17 18 18 18 17 17 17 17 17 18 18 18 19 20 20 21 21 21 21 22 22 22 22 22 22
23 23 22 22 21 20 19 19 18 17 17 17 16 16 15 15 15 15 16 16 16 16 16 16 16 16 17 17 18 19 20 20 20 20 20 20 21 21 22 21 22 22
23 22 21 20 19 18 17 16 16 15 15 15 15 14 14 14 14 14 14 14 14 14 14 15 14 14 15 16 17 19 20 19 19 19 19 19 20 20 21 21 21 21
21 20 19 18 17 16 14 14 14 13 13 13 12 12 13 13 13 13 13 12 12 12 13 13 13 13 14 17 20 19 19 19 19 19 19 19 19 18 19 20 20 21
18 17 17 16 15 14 13 12 12 11 11 11 10 11 11 11 11 11 12 12 11 11 11 11 12 12 15 18 19 21 20 19 18 19 19 19 18 18 17 18 19 20
16 15 14 13 13 12 11 10 10 9 9 8 8 9 9 10 10 10 10 10 10 10 10 10 11 12 16 17 19 20 20 19 19 18 18 18 18 18 18 17 17 17
14 13 12 11 10 9 9 8 7 7 7 7 7 8 8 8 9 9 8 9 9 8 8 9 9 12 14 17 18 19 20 20 18 18 17 17 17 17 16 16 16 15
12 11 10 10 9 8 8 7 6 6 7 7 7 7 7 6 6 6 7 7 7 7 7 8 8 10 14 17 18 19 20 20 18 18 18 17 16 15 15 15 15 15
12 10 9 9 8 7 6 6 6 5 6 6 6 6 5 5 5 4 5 5 6 6 6 5 6 11 15 16 17 18 20 20 18 17 16 16 16 16 16 16 16 16
10 8 8 7 7 6 4 5 5 5 4 5 5 5 5 5 5 5 3 3 4 4 4 4 6 11 13 15 17 18 20 17 15 15 14 15 15 16 16 17 17 18
11 8 6 6 6 4 3 3 5 4 4 5 3 3 3 3 2 3 3 3 2 2 2 3 3 8 12 15 16 18 17 14 15 14 14 14 15 16 17 17 18 18
9 7 6 4 3 2 2 4 4 3 3 3 2 2 2 2 2 1 2 2 1 1 2 2 3 7 12 14 16 17 17 14 14 13 13 14 15 16 17 18 18 19
6 6 6 3 2 3 1 1 1 1 2 2 1 1 1 1 1 0 0 1 1 1 3 3 3 5 10 13 15 16 16 15 14 14 13 14 14 15 17 18 18 19
5 4 3 2 2 1 0 0 0 -1 -1 1 0 0 -0 0 -0 -1 -2 -1 1 1 1 2 2 3 5 12 14 16 18 15 15 13 12 13 14 15 15 16 17 18
MSLP
1030.56 1030.64 1030.68 1030.72 1030.84 1030.92 1031.04 1031.08 1031.04 1031.04 1031.12 1031.16 1031.08 1031.12 1031.16 1031.32 1031.36 1031.32 1031.24 1031.12 1031.04 1030.96 1030.92 1030.88 1030.76 1030.64 1030.48 1030.36 1030.32 1030.28 1030.20 1030.28 1030.20 1030.12 1030.16 1030.12 1030.00 1029.92 1029.80 1029.68 1029.60 1029.40
1030.80 1030.84 1030.92 1031.00 1031.16 1031.24 1031.24 1031.20 1031.24 1031.24 1031.36 1031.40 1031.40 1031.44 1031.40 1031.40 1031.40 1031.36 1031.36 1031.32 1031.24 1031.16 1031.12 1031.04 1030.92 1030.76 1030.64 1030.52 1030.48 1030.40 1030.32 1030.28 1030.28 1030.20 1030.24 1030.12 1030.00 1029.92 1029.80 1029.72 1029.56 1029.36
1031.04 1031.12 1031.20 1031.20 1031.20 1031.28 1031.32 1031.36 1031.40 1031.44 1031.52 1031.60 1031.60 1031.52 1031.48 1031.44 1031.44 1031.44 1031.48 1031.44 1031.36 1031.28 1031.16 1031.08 1030.92 1030.80 1030.76 1030.68 1030.60 1030.48 1030.36 1030.32 1030.20 1030.12 1030.16 1030.12 1030.00 1029.92 1029.80 1029.60 1029.40 1029.24
1031.24 1031.16 1031.08 1031.08 1031.08 1031.16 1031.24 1031.20 1031.40 1031.60 1031.72 1031.68 1031.76 1031.80 1031.72 1031.72 1031.68 1031.68 1031.60 1031.52 1031.40 1031.24 1031.16 1031.08 1031.00 1030.92 1030.88 1030.84 1030.72 1030.64 1030.56 1030.52 1030.48 1030.32 1030.20 1030.04 1029.92 1029.80 1029.60 1029.36 1029.16 1029.00
1030.76 1030.92 1031.12 1031.36 1031.56 1031.72 1031.84 1031.92 1032.08 1032.20 1032.28 1032.32 1032.24 1032.16 1032.08 1032.04 1032.00 1031.96 1031.84 1031.72 1031.56 1031.44 1031.32 1031.28 1031.28 1031.24 1031.16 1031.08 1031.00 1030.88 1030.72 1030.60 1030.44 1030.36 1030.24 1030.04 1029.80 1029.64 1029.44 1029.20 1028.96 1028.76
1031.28 1031.48 1031.72 1031.92 1032.08 1032.08 1032.04 1032.04 1032.20 1032.40 1032.56 1032.52 1032.52 1032.48 1032.48 1032.48 1032.36 1032.24 1032.08 1031.92 1031.80 1031.72 1031.64 1031.56 1031.52 1031.48 1031.40 1031.36 1031.20 1031.08 1030.88 1030.68 1030.44 1030.28 1030.12 1029.92 1029.64 1029.48 1029.32 1029.08 1028.88 1028.64
1031.76 1031.80 1031.96 1032.08 1032.08 1032.00 1031.96 1032.24 1032.56 1032.88 1033.00 1032.96 1032.84 1032.76 1032.76 1032.64 1032.48 1032.32 1032.20 1032.08 1032.04 1031.96 1031.92 1031.84 1031.80 1031.68 1031.60 1031.48 1031.32 1031.16 1030.96 1030.72 1030.52 1030.32 1030.12 1029.88 1029.64 1029.44 1029.28 1029.08 1028.80 1028.60
1031.84 1031.88 1031.96 1032.08 1032.16 1032.32 1032.52 1032.84 1033.12 1033.20 1033.16 1033.00 1032.92 1032.80 1032.68 1032.56 1032.48 1032.40 1032.36 1032.28 1032.20 1032.16 1032.16 1032.08 1032.00 1031.92 1031.76 1031.60 1031.44 1031.24 1031.00 1030.76 1030.60 1030.40 1030.20 1029.96 1029.72 1029.48 1029.24 1029.08 1028.84 1028.60
1031.88 1032.00 1032.20 1032.44 1032.72 1032.84 1032.96 1033.08 1033.20 1033.20 1033.08 1033.00 1032.84 1032.76 1032.60 1032.56 1032.60 1032.56 1032.56 1032.48 1032.44 1032.32 1032.28 1032.20 1032.08 1032.00 1031.80 1031.64 1031.44 1031.20 1030.96 1030.76 1030.60 1030.44 1030.20 1029.96 1029.68 1029.44 1029.28 1029.04 1028.84 1028.64
1032.08 1032.48 1032.76 1032.96 1032.96 1032.96 1033.08 1033.16 1033.24 1033.16 1033.08 1033.00 1032.88 1032.84 1032.80 1032.76 1032.80 1032.76 1032.68 1032.60 1032.52 1032.40 1032.32 1032.24 1032.16 1032.00 1031.84 1031.64 1031.52 1031.28 1031.04 1030.84 1030.60 1030.48 1030.32 1030.12 1029.92 1029.64 1029.44 1029.24 1029.04 1028.72
1032.60 1032.92 1033.08 1033.04 1033.00 1033.04 1033.16 1033.20 1033.16 1033.12 1033.08 1033.04 1033.00 1032.96 1032.88 1032.88 1032.84 1032.76 1032.72 1032.60 1032.56 1032.48 1032.48 1032.40 1032.36 1032.20 1032.04 1031.80 1031.60 1031.44 1031.28 1031.04 1030.76 1030.52 1030.32 1030.16 1030.00 1029.80 1029.64 1029.48 1029.24 1029.04
1032.80 1032.92 1033.00 1033.04 1033.08 1033.12 1033.20 1033.16 1033.16 1033.16 1033.16 1033.08 1033.04 1033.04 1033.00 1032.96 1032.92 1032.88 1032.80 1032.84 1032.68 1032.76 1032.72 1032.68 1032.60 1032.48 1032.28 1032.00 1031.76 1031.52 1031.28 1031.04 1030.80 1030.52 1030.32 1030.16 1030.00 1029.80 1029.64 1029.52 1029.36 1029.12
1032.80 1032.88 1032.96 1033.04 1033.08 1033.12 1033.16 1033.16 1033.20 1033.20 1033.16 1033.12 1033.08 1033.12 1033.08 1033.04 1033.08 1033.04 1032.96 1032.96 1032.92 1032.96 1032.96 1032.88 1032.80 1032.60 1032.40 1032.16 1031.96 1031.68 1031.36 1031.04 1030.76 1030.56 1030.36 1030.20 1030.00 1029.88 1029.72 1029.52 1029.32 1029.12
1032.80 1032.84 1032.92 1032.96 1033.00 1033.08 1033.12 1033.12 1033.20 1033.20 1033.28 1033.24 1033.28 1033.24 1033.24 1033.24 1033.24 1033.24 1033.20 1033.16 1033.12 1033.20 1033.16 1033.12 1032.96 1032.80 1032.56 1032.32 1032.04 1031.72 1031.32 1031.08 1030.84 1030.60 1030.36 1030.20 1030.00 1029.80 1029.60 1029.44 1029.28 1029.04
1032.56 1032.68 1032.76 1032.76 1032.88 1033.00 1033.16 1033.24 1033.36 1033.44 1033.48 1033.44 1033.40 1033.44 1033.48 1033.44 1033.48 1033.40 1033.36 1033.32 1033.32 1033.32 1033.32 1033.20 1033.16 1032.96 1032.76 1032.48 1032.00 1031.56 1031.32 1031.04 1030.80 1030.64 1030.40 1030.08 1029.80 1029.60 1029.44 1029.28 1029.08 1028.84
1032.44 1032.44 1032.52 1032.76 1033.00 1033.20 1033.40 1033.48 1033.52 1033.60 1033.60 1033.60 1033.64 1033.68 1033.68 1033.64 1033.60 1033.56 1033.48 1033.48 1033.44 1033.40 1033.32 1033.28 1033.16 1033.00 1032.80 1032.40 1032.00 1031.64 1031.28 1031.04 1030.76 1030.48 1030.20 1029.96 1029.72 1029.48 1029.24 1029.08 1028.84 1028.64
1032.32 1032.52 1032.76 1033.00 1033.28 1033.40 1033.52 1033.60 1033.64 1033.72 1033.72 1033.76 1033.80 1033.80 1033.76 1033.72 1033.68 1033.60 1033.60 1033.60 1033.56 1033.44 1033.40 1033.28 1033.12 1032.96 1032.60 1032.12 1031.80 1031.48 1031.24 1030.92 1030.64 1030.28 1030.04 1029.88 1029.68 1029.40 1029.12 1028.84 1028.68 1028.56
1032.44 1032.64 1032.84 1033.20 1033.40 1033.48 1033.60 1033.76 1033.84 1033.84 1033.84 1033.88 1033.92 1033.84 1033.88 1033.84 1033.84 1033.76 1033.80 1033.72 1033.60 1033.52 1033.44 1033.28 1033.08 1032.84 1032.40 1032.00 1031.64 1031.24 1030.96 1030.68 1030.40 1030.20 1029.96 1029.76 1029.48 1029.28 1029.04 1028.92 1028.80 1028.68
1032.36 1032.44 1032.92 1033.32 1033.48 1033.60 1033.68 1033.80 1033.84 1033.88 1033.92 1033.96 1034.04 1034.04 1034.00 1033.96 1033.92 1034.00 1033.92 1033.80 1033.72 1033.60 1033.44 1033.24 1033.00 1032.68 1032.28 1031.80 1031.40 1031.00 1030.72 1030.48 1030.20 1030.00 1029.76 1029.48 1029.40 1029.36 1029.28 1029.16 1028.92 1028.64
1032.36 1032.56 1032.92 1033.28 1033.44 1033.52 1033.68 1033.76 1033.84 1033.96 1034.04 1034.12 1034.08 1034.08 1034.04 1034.12 1034.08 1034.04 1033.96 1033.92 1033.80 1033.64 1033.40 1033.16 1032.96 1032.60 1032.08 1031.56 1031.16 1030.84 1030.52 1030.20 1029.96 1029.76 1029.60 1029.52 1029.52 1029.44 1029.24 1028.96 1028.72 1028.44
1032.28 1032.64 1033.00 1033.20 1033.36 1033.52 1033.68 1033.80 1033.92 1034.04 1034.08 1034.08 1034.12 1034.16 1034.16 1034.12 1034.08 1034.08 1034.00 1033.96 1033.80 1033.64 1033.40 1033.16 1032.88 1032.36 1031.80 1031.40 1031.00 1030.60 1030.20 1029.88 1029.76 1029.72 1029.60 1029.48 1029.28 1029.12 1028.92 1028.64 1028.36 1028.00
1032.36 1032.68 1032.92 1033.12 1033.32 1033.56 1033.72 1033.84 1033.96 1034.00 1034.12 1034.12 1034.20 1034.16 1034.12 1034.04 1034.04 1034.00 1033.96 1033.88 1033.76 1033.60 1033.40 1033.00 1032.60 1032.20 1031.76 1031.28 1030.76 1030.32 1029.92 1029.80 1029.76 1029.64 1029.36 1029.12 1028.92 1028.68 1028.44 1028.12 1027.84 1027.52
1032.40 1032.56 1032.72 1033.00 1033.28 1033.48 1033.64 1033.84 1033.92 1034.00 1034.08 1034.08 1034.20 1034.16 1034.08 1034.04 1034.04 1033.96 1033.92 1033.84 1033.68 1033.60 1033.32 1032.84 1032.48 1032.16 1031.60 1031.00 1030.52 1030.12 1029.84 1029.72 1029.48 1029.24 1028.96 1028.72 1028.44 1028.12 1027.84 1027.60 1027.36 1026.92
1032.32 1032.44 1032.64 1033.00 1033.24 1033.40 1033.64 1033.80 1033.92 1034.00 1034.08 1034.08 1034.12 1034.04 1034.00 1033.96 1033.88 1033.84 1033.80 1033.72 1033.60 1033.40 1033.24 1032.72 1032.12 1031.84 1031.36 1030.80 1030.36 1029.96 1029.64 1029.36 1029.12 1028.88 1028.52 1028.20 1027.80 1027.60 1027.40 1027.12 1026.72 1026.24
1032.24 1032.40 1032.64 1032.92 1033.16 1033.40 1033.60 1033.72 1033.80 1033.88 1033.96 1034.00 1034.04 1034.00 1033.92 1033.88 1033.84 1033.72 1033.60 1033.52 1033.40 1033.20 1032.88 1032.52 1032.00 1031.64 1031.28 1030.68 1030.16 1029.68 1029.32 1029.04 1028.72 1028.44 1028.08 1027.76 1027.44 1027.16 1026.92 1026.44 1025.92 1025.64
1032.16 1032.40 1032.68 1032.88 1033.12 1033.36 1033.56 1033.68 1033.76 1033.88 1033.92 1033.88 1033.92 1033.92 1033.84 1033.80 1033.72 1033.60 1033.44 1033.24 1033.12 1032.92 1032.68 1032.36 1031.96 1031.48 1031.20 1030.40 1029.84 1029.36 1028.92 1028.60 1028.28 1028.04 1027.68 1027.28 1027.00 1026.52 1026.04 1025.68 1025.40 1025.00
Wind_Speed
5 4 5 4 4 4 4 4 4 5 5 4 5 5 6 5 4 5 5 5 6 6 6 6 6 6 6 6 5 5 5 5 5 4 5 4 4 5 6 6 6 5
5 5 4 4 4 4 4 4 5 5 5 5 5 4 4 4 5 5 5 5 5 6 5 5 6 6 6 6 5 5 5 5 5 3 5 6 5 4 5 6 5 5
5 5 5 6 5 5 5 5 5 5 5 5 4 5 5 4 5 5 5 5 5 5 6 6 6 6 6 6 6 6 6 7 7 6 5 5 5 5 5 5 5 5
5 5 6 7 7 8 7 8 8 7 7 7 8 7 6 6 7 7 7 7 7 8 7 8 9 8 8 8 7 7 7 6 6 6 7 5 5 6 6 6 6 5
8 8 7 7 6 6 6 6 6 5 5 5 4 6 6 6 6 6 6 6 6 7 7 8 7 7 7 7 7 6 7 6 6 6 6 7 6 6 6 6 8 8
7 7 6 6 5 5 5 6 6 6 6 5 6 5 5 5 5 5 6 6 6 6 7 7 7 7 7 7 6 5 6 6 7 8 8 8 8 6 6 7 8 9
6 5 6 5 6 6 7 7 6 5 4 3 3 4 3 4 5 5 6 6 6 6 6 6 7 7 6 6 6 7 6 7 7 8 8 8 8 9 7 8 9 9
6 6 5 6 7 6 6 5 4 3 3 3 4 3 4 4 5 5 5 6 5 6 6 6 5 6 6 6 6 7 6 5 6 7 8 8 7 8 8 7 9 10
6 6 6 6 5 4 5 4 3 3 3 3 4 4 5 5 6 5 5 5 4 4 4 5 6 6 6 6 7 7 8 7 7 8 9 10 10 10 10 10 10 10
7 5 5 4 4 4 5 4 3 3 4 4 4 4 4 4 4 4 4 4 4 5 6 7 8 8 7 7 8 9 9 10 9 9 9 9 10 11 11 11 12 12
5 4 4 4 4 4 4 4 3 3 3 3 3 3 4 3 3 4 4 6 6 7 8 7 8 7 8 8 7 7 8 8 9 9 9 9 9 10 10 11 11 11
5 4 4 4 4 4 4 3 3 3 3 3 4 4 4 4 5 5 6 6 6 7 6 7 7 7 8 8 8 8 8 8 8 9 9 9 9 9 9 9 10 11
5 4 4 4 4 4 3 3 3 4 4 5 5 5 5 5 6 6 6 6 6 6 7 7 7 7 7 8 8 8 9 9 9 10 10 10 9 10 10 10 10 11
5 5 4 4 4 3 3 4 4 5 5 5 5 6 6 6 7 7 6 5 5 6 6 6 6 7 7 8 8 8 10 10 10 11 11 11 11 11 10 10 10 10
5 4 4 4 4 5 5 5 5 5 5 5 6 6 5 6 6 6 6 6 5 5 6 5 5 6 5 7 10 11 10 11 11 11 12 12 12 12 11 11 11 10
4 4 4 4 4 5 5 4 4 5 5 5 6 5 5 5 6 6 5 6 7 6 6 5 5 4 8 15 14 11 12 10 11 11 11 12 12 12 12 11 12 11
4 4 4 5 4 4 4 5 5 4 4 5 5 5 6 6 6 6 6 6 6 6 7 5 5 6 14 16 16 17 13 11 11 12 12 12 11 12 12 13 11 12
4 5 5 4 4 5 5 4 4 4 4 5 5 5 5 5 5 5 6 6 6 6 7 6 7 10 16 17 17 17 16 12 11 11 11 10 11 11 11 12 13 12
4 5 5 4 3 3 3 3 4 4 4 5 5 5 5 5 5 6 6 6 6 7 7 7 8 11 16 17 17 17 17 15 10 11 10 11 11 11 12 12 11 12
5 4 3 3 3 3 3 3 4 4 3 3 3 4 4 5 5 6 6 6 6 7 8 8 9 12 17 18 17 18 17 16 11 11 10 11 11 11 11 12 12 12
5 4 3 3 3 3 3 3 3 3 3 3 3 4 5 5 5 5 5 5 7 7 8 9 8 16 17 18 18 18 18 16 10 9 9 10 11 11 12 12 13 12
5 3 3 3 3 2 3 3 2 2 3 3 3 3 3 4 4 4 6 6 6 7 8 9 9 15 17 17 18 18 19 11 8 10 10 10 11 12 13 12 12 13
4 3 3 2 2 2 2 2 3 3 3 2 3 4 4 4 4 4 5 6 7 6 8 9 9 13 17 18 18 19 15 9 10 9 9 11 13 14 13 11 12 14
4 4 4 2 1 1 1 2 1 2 2 1 3 4 5 4 5 5 4 5 6 7 7 10 9 12 18 18 18 18 16 12 10 9 10 10 10 11 11 12 14 22
4 3 3 2 1 1 1 2 2 2 2 2 3 3 5 4 4 5 5 4 5 7 11 12 10 11 17 18 19 18 15 11 9 9 10 11 11 12 12 13 14 16
3 3 2 1 1 1 1 2 2 2 2 3 3 3 4 4 5 5 6 6 5 6 6 8 9 9 11 20 19 19 19 12 10 9 11 12 12 13 12 12 12 12
Wind_Direction
89 90 98 95 81 76 83 88 72 75 65 57 58 52 53 44 30 30 26 23 27 27 21 18 15 17 15 14 16 11 16 14 4 4 359 355 347 349 340 338 335 331
74 78 81 85 89 81 73 67 63 63 61 57 54 51 56 53 36 39 32 32 31 33 23 22 20 17 14 13 8 6 6 4 358 353 349 344 339 334 325 320 315 309
77 85 90 92 96 86 78 72 69 58 57 54 59 49 41 41 35 32 30 28 29 32 28 23 23 21 16 13 7 7 3 356 354 351 344 336 328 321 312 301 304 306
119 103 87 70 60 56 43 46 37 35 30 29 24 18 20 16 16 18 15 14 18 14 17 16 15 10 10 4 2 1 355 352 341 334 333 329 325 321 319 316 308 305
67 60 57 59 57 61 60 65 59 49 45 39 31 27 23 18 18 18 15 13 13 12 13 12 11 8 3 1 357 351 346 340 335 335 330 325 324 326 321 320 317 314
63 69 70 74 76 84 77 66 56 47 37 31 31 28 23 15 21 19 17 15 13 14 11 8 8 4 360 358 347 346 340 336 334 334 330 326 323 324 318 316 311 307
92 93 87 84 76 61 62 55 48 47 38 43 39 41 28 28 31 26 23 17 16 18 12 5 5 358 357 351 345 340 337 331 329 332 325 321 320 317 318 316 312 308
83 76 74 66 64 60 69 74 67 59 53 45 48 25 32 33 32 25 22 16 17 16 8 6 0 356 348 342 336 331 327 325 327 326 321 316 317 314 318 316 312 309
85 74 69 70 80 85 90 83 70 58 45 43 32 26 26 36 25 22 17 16 16 10 8 6 0 353 350 345 340 340 335 333 333 332 328 327 325 322 323 320 316 313
75 80 92 112 109 106 100 83 70 59 42 41 34 24 37 30 30 18 17 17 13 18 16 9 2 354 351 348 343 339 335 330 328 326 321 317 314 314 317 318 315 314
112 125 134 127 113 102 93 80 66 56 41 41 37 32 38 21 22 23 21 21 17 16 4 5 358 351 345 340 336 330 323 318 315 312 310 308 307 306 307 307 307 305
145 140 131 123 116 108 94 79 68 53 40 42 38 26 28 26 23 25 18 17 16 13 5 1 356 348 334 331 330 327 320 314 311 309 308 308 307 305 305 306 302 300
150 143 137 130 117 101 91 80 63 49 39 36 25 28 25 20 19 22 12 16 11 9 1 352 343 338 331 326 325 322 321 320 320 318 315 317 314 313 311 310 307 305
153 140 128 115 107 98 81 64 51 40 33 26 27 27 24 19 13 7 5 8 2 360 351 344 335 331 330 324 320 322 322 321 319 318 315 313 312 311 311 309 307 306
147 135 121 101 86 74 59 49 44 36 27 27 28 25 18 14 8 0 356 356 354 348 342 338 329 317 322 323 323 322 321 316 315 312 311 310 309 310 309 308 305 303
129 106 87 77 69 64 56 46 41 27 24 25 24 19 10 7 0 356 358 349 342 336 334 326 319 308 304 312 316 314 316 312 309 307 307 308 307 308 306 305 303 302
101 90 85 77 67 63 50 42 30 21 21 20 17 10 5 3 354 353 352 340 333 327 322 318 307 298 307 315 314 314 312 307 305 305 305 305 303 303 303 306 305 306
109 97 84 75 68 53 50 39 27 21 18 16 4 3 360 351 349 346 337 330 323 318 313 307 303 302 310 312 312 311 310 306 304 302 301 300 300 300 302 305 306 304
103 92 89 86 69 65 56 37 33 18 15 6 1 349 337 343 336 331 321 320 315 311 307 304 297 304 310 310 309 309 309 308 300 298 296 297 300 302 301 299 299 299
102 96 94 89 74 65 48 34 26 15 359 340 336 334 333 322 317 313 313 311 310 307 303 301 298 302 308 308 309 308 307 305 299 300 298 297 297 296 294 294 295 296
102 101 103 89 72 61 48 28 11 349 341 339 336 325 320 313 311 306 300 300 301 302 300 297 291 303 307 308 308 307 306 307 304 300 294 289 290 290 291 292 291 289
112 122 108 93 74 62 51 1 348 330 327 323 316 303 286 288 289 291 294 297 297 298 297 292 291 304 307 306 307 308 310 310 302 293 287 285 288 290 291 289 288 285
133 127 117 97 92 64 21 336 327 314 315 308 304 299 301 296 287 289 290 292 292 288 291 289 288 303 306 307 309 310 312 302 295 291 286 285 288 291 290 287 283 279
136 124 118 115 109 93 284 299 294 292 284 295 301 304 299 288 294 291 281 282 287 287 285 293 291 304 308 310 310 309 307 303 298 289 284 278 281 290 291 283 274 271
131 119 121 133 145 209 236 264 284 281 292 289 271 274 282 291 290 292 285 280 273 278 291 295 292 300 307 308 308 308 307 299 294 291 289 289 293 294 288 278 278 276
125 125 135 144 176 210 249 256 275 287 279 291 291 285 288 293 291 285 287 286 282 280 278 285 290 291 299 305 307 306 305 302 296 294 292 291 291 282 275 271 269 272